Weather History for CWAR - December, 2012

Change the Weather History Date:

Friday, December 7, 2012

  Actual Average Record
Temperature  
Mean Temperature 34 °F -  
Max Temperature 37 °F - - ()
Min Temperature 31 °F - - ()
Degree Days  
Heating Degree Days 30    
Moisture  
Dew Point 30 °F    
Average Humidity 79    
Maximum Humidity 95    
Minimum Humidity 68    
Precipitation  
Precipitation 0.03 in - - ()
Sea Level Pressure  
Sea Level Pressure 29.78 in    
Wind  
Wind Speed 23 mph ()    
Max Wind Speed 32 mph    
Max Gust Speed 40 mph    
T = Trace of Precipitation, MM = Missing Value Source: Averaged Metar Reports

Daily Weather History Graph

Daily Weather History Graph

Search for Another Location

Airport or City:

Trip Planner

Search our weather history database for the weather conditions in past years. The results will help you decide how hot, cold, wet, or windy it might be!

Date:

Astronomy

Dec. 07, 2012 Rise Set
Actual Time 7:39 AM NST 4:15 PM NST
Civil Twilight 7:03 AM NST 4:51 PM NST
Nautical Twilight 6:25 AM NST 5:29 PM NST
Astronomical Twilight 5:48 AM NST 6:07 PM NST
Moon 12:28 AM NST (12/7) 12:30 PM NST (12/7)
Length of Visible Light 9h 47m
Length of Day
8h 36m
Last Quarter, 39% of the Moon is Illuminated
Dec 7
Last Quarter
Dec 13
New
Dec 20
First Quarter
Dec 28
Full
Jan 5
Last Quarter

Hourly Weather History & Observations

Time (NST) Temp. Windchill Dew Point Humidity Pressure Visibility Wind Dir Wind Speed Gust Speed Precip Events Conditions
12:30 AM 35.8 °F 23.7 °F 34.5 °F 95% 29.60 in - North 25.3 mph 31.1 mph N/A   Unknown
1:30 AM 35.6 °F 23.2 °F 34.0 °F 94% 29.63 in - North 26.5 mph 32.2 mph 0.03 in   Unknown
2:30 AM 36 °F - 33 °F 86% 29.65 in - NNW 25.3 mph - -  
2:30 AM 35.8 °F 23.7 °F 33.3 °F 91% 29.65 in - NNW 25.3 mph 31.1 mph N/A   Unknown
3:30 AM 36.0 °F 24.4 °F 33.1 °F 89% 29.67 in - NNW 23.0 mph - N/A   Unknown
4:30 AM 36.0 °F 24.4 °F 31.3 °F 83% 29.69 in - NNW 23.0 mph 29.9 mph N/A   Unknown
5:30 AM 36 °F - 33 °F 83% 29.70 in - NNW 21.9 mph - -  
5:30 AM 36.5 °F 25.4 °F 31.3 °F 81% 29.70 in - NNW 21.9 mph - N/A   Unknown
6:30 AM 37.0 °F 25.9 °F 31.8 °F 81% 29.71 in - NNW 23.0 mph 29.9 mph N/A   Unknown
7:30 AM 36.7 °F 24.4 °F 31.5 °F 81% 29.71 in - NNW 27.6 mph 35.7 mph N/A   Unknown
8:30 AM 37 °F - 31 °F 72% 29.73 in - North 27.6 mph - -  
8:30 AM 37.0 °F 24.9 °F 31.3 °F 80% 29.73 in - North 27.6 mph 39.1 mph N/A   Unknown
9:30 AM 37.4 °F 25.4 °F 30.9 °F 77% 29.75 in - North 27.6 mph 39.1 mph N/A   Unknown
10:30 AM 37.6 °F 25.2 °F 30.9 °F 77% 29.77 in - North 29.9 mph 39.1 mph N/A   Unknown
11:30 AM 37 °F - 31 °F 73% 29.77 in - NNW 29.9 mph - -  
11:30 AM 37.4 °F 25.0 °F 31.5 °F 79% 29.77 in - NNW 29.9 mph 39.1 mph N/A   Unknown
12:30 PM 36.9 °F 24.2 °F 31.1 °F 80% 29.78 in - NNW 29.9 mph 36.8 mph N/A   Unknown
1:30 PM 37.2 °F 24.9 °F 31.3 °F 79% 29.79 in - NNW 28.8 mph 36.8 mph N/A   Unknown
2:30 PM 37 °F - 30 °F 68% 29.81 in - NNW 29.9 mph - -  
2:30 PM 36.9 °F 24.2 °F 30.2 °F 77% 29.81 in - NNW 29.9 mph 39.1 mph N/A   Unknown
3:30 PM 36.0 °F 22.8 °F 30.2 °F 80% 29.83 in - NNW 31.1 mph 38.0 mph N/A   Unknown
4:30 PM 35.6 °F 22.1 °F 29.3 °F 78% 29.85 in - NNW 32.2 mph 38.0 mph N/A   Unknown
5:30 PM 35 °F - 29 °F 73% 29.87 in - NNW 32.2 mph - -  
5:30 PM 35.4 °F 21.8 °F 29.5 °F 79% 29.87 in - NNW 32.2 mph 40.3 mph N/A   Unknown
6:30 PM 34.9 °F 21.3 °F 29.1 °F 79% 29.89 in - NNW 31.1 mph 36.8 mph N/A   Unknown
7:30 PM 34.5 °F 21.5 °F 28.4 °F 78% 29.90 in - NNW 27.6 mph 35.7 mph N/A   Unknown
8:30 PM 34 °F - 28 °F 69% 29.91 in - NNW 26.5 mph - -  
9:30 PM 33.4 °F 21.4 °F 26.8 °F 77% 29.93 in - NNW 21.9 mph 28.8 mph N/A   Unknown
10:30 PM 32.9 °F 21.6 °F 26.2 °F 76% 29.94 in - NNW 18.4 mph 24.2 mph N/A   Unknown
11:30 PM 32 °F - 26 °F 69% 29.95 in - NW 16.1 mph - -  
11:30 PM 31.6 °F 20.7 °F 25.7 °F 79% 29.95 in - NW 16.1 mph 21.9 mph N/A   Unknown